DW8873 Weather Reports


Display with metric or nautical units.
time (UTC)temp
F
wind
direction
speed
MPH
gust
MPH
rain 1hr
in
rain 24hr
in
rain mn
in
humidity
%
barometer
mb
20260503051827 74 344 6.0 21.0 0.00 0.00 0.00 69 1017.4
20260503050723 74 37 6.0 21.0 0.00 0.00 0.00 69 1017.7
20260503045722 74 23 7.0 17.0 0.00 0.00 0.00 69 1017.7
20260503044720 75 6 8.0 16.0 0.00 0.00 0.00 68 1017.7
20260503043718 75 35 6.0 14.0 0.00 0.00 0.00 68 1017.7
20260503042715 75 42 4.0 11.0 0.00 0.00 0.00 66 1017.7
20260503041714 75 359 5.0 11.0 0.00 0.00 0.00 67 1017.7
20260503040712 75 8 3.0 12.0 0.00 0.00 0.00 66 1018.1
20260503035710 76 2 5.0 12.0 0.00 0.00 0.00 64 1018.1
20260503034709 76 13 4.0 10.0 0.00 0.00 0.00 64 1018.1
20260503033707 76 36 6.0 10.0 0.00 0.00 0.00 63 1018.1
20260503032706 76 5 4.0 10.0 0.00 0.00 0.00 61 1018.4
20260503031704 76 4 3.0 14.0 0.00 0.00 0.00 61 1018.4
20260503030702 77 9 3.0 14.0 0.00 0.00 0.00 60 1018.8
20260503025700 77 13 5.0 14.0 0.00 0.00 0.00 56 1018.8
20260503024659 76 356 3.0 14.0 0.00 0.00 0.00 58 1019.1
20260503023657 77 343 8.0 12.0 0.00 0.00 0.00 55 1019.1
20260503022655 76 0 4.0 14.0 0.00 0.00 0.00 56 1019.1
20260503021654 76 354 4.0 14.0 0.00 0.00 0.00 55 1019.4
20260503020653 75 337 6.0 18.0 0.00 0.00 0.00 55 1019.8
20260503015620 74 343 5.0 15.0 0.00 0.00 0.00 56 1019.8
20260503014619 75 345 5.0 15.0 0.00 0.00 0.00 55 1020.1
20260503013617 74 342 8.0 14.0 0.00 0.00 0.00 55 1020.1
20260503012544 74 357 7.0 14.0 0.00 0.00 0.00 55 1020.4
20260503011543 74 351 8.0 16.0 0.00 0.00 0.00 55 1020.4
20260503010541 74 350 6.0 16.0 0.00 0.00 0.00 58 1020.8
20260503005539 73 346 9.0 17.0 0.00 0.00 0.00 59 1020.8
20260503004538 73 347 5.0 17.0 0.00 0.00 0.00 61 1021.1
20260503003537 72 347 7.0 15.0 0.00 0.00 0.00 62 1021.1
20260503002536 72 355 4.0 15.0 0.00 0.00 0.00 64 1021.1
20260503001534 72 347 6.0 15.0 0.00 0.00 0.00 64 1021.5
20260503000533 72 16 7.0 15.0 0.00 0.00 0.00 65 1021.5
20260502235531 72 14 5.0 12.0 0.00 0.00 0.00 69 1021.5
20260502234529 71 356 3.0 17.0 0.00 0.00 0.00 71 1021.5
20260502233528 72 346 5.0 17.0 0.00 0.00 0.00 70 1021.5
20260502232526 73 337 4.0 10.0 0.00 0.00 0.00 71 1021.8
20260502231525 72 3 3.0 6.0 0.00 0.00 0.00 74 1021.8
20260502230523 70 344 2.0 3.0 0.00 0.00 0.00 80 1021.8
20260502225523 69 286 1.0 2.0 0.00 0.00 0.00 84 1022.1
20260502224521 67 286 0.0 2.0 0.00 0.00 0.00 87 1022.1
20260502223519 67 286 0.0 2.0 0.00 0.00 0.00 89 1022.1
20260502222518 66 286 0.0 1.0 0.00 0.00 0.00 94 1021.8
20260502221517 63 286 0.0 1.0 0.00 0.00 0.00 96 1021.8
20260502220444 62 286 0.0 1.0 0.00 0.00 0.00 96 1021.8
20260502215443 61 286 0.0 1.0 0.00 0.00 0.00 95 1021.8
20260502214441 61 286 0.0 0.0 0.00 0.00 0.00 95 1021.8
20260502213440 60 286 0.0 0.0 0.00 0.00 0.00 95 1021.4
20260502212336 60 286 0.0 2.0 0.00 0.00 0.00 95 1021.4
20260502211335 60 286 1.0 4.0 0.00 0.00 0.00 95 1021.4
20260502210336 60 286 1.0 4.0 0.00 0.00 0.00 95 1021.4
20260502205332 60 335 0.0 0.0 0.00 0.00 0.00 94 1021.1
20260502204331 60 335 0.0 0.0 0.00 0.00 0.00 94 1021.1
20260502203227 60 335 0.0 0.0 0.00 0.00 0.00 94 1021.1
20260502202155 60 335 0.0 0.0 0.00 0.00 0.00 94 1021.4
20260502201153 60 335 0.0 1.0 0.00 0.00 0.00 94 1021.4
20260502200152 60 335 0.0 1.0 0.00 0.00 0.00 94 1021.4
20260502195150 61 335 0.0 1.0 0.00 0.00 0.00 94 1021.4
20260502194149 61 335 0.0 0.0 0.00 0.00 0.00 94 1021.1
20260502193148 61 335 0.0 1.0 0.00 0.00 0.00 93 1021.1
20260502192146 61 335 0.0 2.0 0.00 0.00 0.00 93 1021.1
20260502191145 61 335 1.0 2.0 0.00 0.00 0.00 93 1021.1
20260502190143 61 335 0.0 0.0 0.00 0.00 0.00 93 1021.1
20260502185110 61 335 0.0 0.0 0.00 0.00 0.00 93 1020.7
20260502184108 61 335 0.0 0.0 0.00 0.00 0.00 92 1021.1
20260502183107 62 335 0.0 2.0 0.00 0.00 0.00 92 1021.1
20260502182023 62 335 1.0 2.0 0.00 0.00 0.00 92 1021.1
20260502181021 62 335 0.0 1.0 0.00 0.00 0.00 92 1021.1
20260502163906 64 335 1.0 2.0 0.00 0.00 0.00 88 1021.4
20260502162833 64 335 0.0 0.0 0.00 0.00 0.00 87 1021.4
20260502161831 64 335 0.0 0.0 0.00 0.00 0.00 87 1021.5
20260502160758 65 335 0.0 0.0 0.00 0.00 0.00 86 1021.8
20260502151720 68 335 1.0 10.0 0.00 0.00 0.00 80 1021.8
20260502150718 68 334 2.0 12.0 0.00 0.00 0.00 80 1021.8
20260502130630 68 343 0.0 6.0 0.00 0.00 0.00 82 1022.5
20260502123554 68 9 2.0 3.0 0.00 0.00 0.00 83 1022.5
20260502122552 68 14 1.0 2.0 0.00 0.00 0.00 83 1022.5
20260502121551 68 14 0.0 1.0 0.00 0.00 0.00 82 1022.8
20260502120518 68 14 1.0 2.0 0.00 0.00 0.00 82 1022.8
20260502115516 69 14 0.0 3.0 0.00 0.00 0.00 81 1022.8
20260502114515 69 14 1.0 3.0 0.00 0.00 0.00 80 1022.8
20260502113514 69 14 1.0 4.0 0.00 0.00 0.00 79 1022.8
20260502112512 70 41 1.0 6.0 0.00 0.00 0.00 79 1022.8
20260502111510 70 41 2.0 6.0 0.00 0.00 0.00 78 1022.8
20260502110437 70 359 3.0 5.0 0.00 0.00 0.00 78 1022.8
20260502105436 70 10 1.0 5.0 0.00 0.00 0.00 78 1022.8
20260502104402 70 354 2.0 11.0 0.00 0.00 0.00 77 1023.1
20260502103401 70 346 6.0 12.0 0.00 0.00 0.00 77 1022.8
20260502102400 70 356 3.0 10.0 0.00 0.00 0.00 77 1022.8
20260502101358 70 16 4.0 10.0 0.00 0.00 0.00 77 1022.5
20260502100357 71 15 3.0 10.0 0.00 0.00 0.00 77 1022.5
20260502091319 71 14 3.0 10.0 0.00 0.00 0.00 74 1022.4
20260502090317 71 356 4.0 10.0 0.00 0.00 0.00 73 1022.4
20260502071249 71 356 4.0 11.0 0.00 0.00 0.00 74 1021.8
20260502070248 71 11 4.0 13.0 0.00 0.00 0.00 75 1021.8
20260502065246 71 8 7.0 12.0 0.00 0.00 0.00 75 1021.8
20260502064142 72 16 5.0 12.0 0.00 0.00 0.00 77 1021.8
20260502063141 72 2 5.0 14.0 0.00 0.00 0.00 77 1021.8
20260502062139 72 351 5.0 14.0 0.00 0.00 0.00 76 1021.8
20260502061138 72 28 4.0 14.0 0.00 0.00 0.00 76 1021.8
20260502060136 72 356 6.0 14.0 0.00 0.00 0.00 74 1021.8
20260502055134 72 20 5.0 17.0 0.00 0.00 0.00 73 1021.8
20260502054133 72 34 8.0 17.0 0.00 0.00 0.00 72 1021.8
20260502053131 73 21 8.0 19.0 0.00 0.00 0.00 71 1021.8